Regional Weather Roundup
Issued by NWS Green Bay, WI

Home | Current Version | Previous Version | Text Only | Print | Product List | Glossary On
Versions: 1 2 3 4 5 6 7 8 9 10 11 12 13 14 15 16 17 18 19 20 21 22 23 24 25 26 27 28 29 30 31 32 33 34 35 36 37 38 39 40 41 42 43 44 45 46 47 48 49 50
000
ASUS43 KGRB 311959
RWRGRB

NORTH-CENTRAL AND NORTHEAST WISCONSIN REGIONAL WEATHER ROUNDUP
NATIONAL WEATHER SERVICE GREEN BAY WI
200 PM CST SAT JAN 31 2015

WIZ005-009-010>012-018-019-312100-
NORTH CENTRAL WISCONSIN

CITY           SKY/WX    TMP DP  RH WIND       PRES   REMARKS
IRONWOOD       CLOUDY    18  10  73 N10G16    30.18S WCI   6
MANITOWISH WTR NOT AVBL
ARBOR VITAE    NOT AVBL
EAGLE RIVER    NOT AVBL
LAND O LAKES   NOT AVBL
RHINELANDER    CLOUDY    22  14  71 N7        30.13S
PHILLIPS       NOT AVBL
ANTIGO         NOT AVBL
TOMAHAWK       NOT AVBL
MERRILL        NOT AVBL
$$

WIZ013-073-312100-
NORTHEAST WISCONSIN

CITY           SKY/WX    TMP DP  RH WIND       PRES   REMARKS
IRON MOUNTAIN  CLOUDY    24  15  68 NW12      30.13R
MARINETTE      CLOUDY    28  19  69 N6        30.16R
$$

WIZ017-030-035>037-045-312100-
CENTRAL WISCONSIN

CITY           SKY/WX    TMP DP  RH WIND       PRES   REMARKS
MEDFORD        NOT AVBL
WAUSAU         CLOUDY    26  18  71 N7        30.14R
MOSINEE        NOT AVBL
MARSHFIELD     CLOUDY    28  19  69 N7        30.15R
WISC RAPIDS    CLOUDY    28  18  66 N5        30.17R
STEVENS POINT  NOT AVBL
WAUPACA        NOT AVBL
SHAWANO        NOT AVBL
CLINTONVILLE   NOT AVBL
$$

WIZ038-039-048-051-312100-
FOX VALLEY

CITY           SKY/WX    TMP DP  RH WIND       PRES   REMARKS
NWS GREEN BAY  CLOUDY    28  19  69 NW5       30.17S
APPLETON       CLOUDY    27  18  69 N6        30.15F
OSHKOSH        CLOUDY    28  19  69 NW3       30.16S
FOND DU LAC    CLOUDY    28  19  69 NE8       30.16S
$$

WIZ022-050-052-312100-
EAST CENTRAL WISCONSIN

CITY           SKY/WX    TMP DP  RH WIND       PRES   REMARKS
STURGEON BAY   CLOUDY    27  18  69 N7        30.18R
MANITOWOC      NOT AVBL
SHEBOYGAN      CLOUDY    30  19  63 N8        30.16S
$$

LMZ563-521-522-541>543-312100-
LAKESHORE

STATION/POSITION TIME  TEMP    WIND        PRES    VSBY  WAVE
                       AIR SEA DIR/SP/G                  HT/PER
                 (UTC) (F)     (DEG/KT/KT) (MB)    (MI)  (FT/S)
SHEBOYGAN LKSHOR 1900   30     330/  8/  9 1022.6F
KEWAUNEE LKSHORE 1900   27     320/  3/  7 1020.6S
NORTHPORT PIER   1900   26     300/  7/  9 1021.0S
SISTER BAY LKSHO 1900   29     270/  6/  6   N/A
STURGEON BAY CG  1900   27     300/  4     1022.2      6   1
CHAMBERS ISLAND  1900   28     310/  6/  9 1021.3S
MENOMINEE LKSHOR 1900   27     320/  8     1021.9S
$$



USA.gov is the U.S. government's official web portal to all federal, state and local government web resources and services.